Weather History for Pontiac, IL

Change the Weather History Date:

Tuesday, June 10, 2014

  Actual Average Record
Temperature  
Mean Temperature 65 °F -  
Max Temperature 68 °F 80 °F 102 °F (1933)
Min Temperature 62 °F 57 °F 40 °F (1972)
Growing Degree Days 15 (Base 50)    
Moisture  
Dew Point 62 °F    
Average Humidity 91    
Maximum Humidity 100    
Minimum Humidity 77    
Precipitation  
Precipitation 0.26 in - - ()
Sea Level Pressure  
Sea Level Pressure 29.83 in    
Wind  
Wind Speed 11 mph (ENE)    
Max Wind Speed 17 mph    
Max Gust Speed 23 mph    
Visibility 6 miles    
Events Rain    
Averages and records for this station are not official NWS values.
T = Trace of Precipitation, MM = Missing Value Source: NWS Daily Summary

Daily Weather History Graph

Daily Weather History Graph

Search for Another Location

Airport:

Trip Planner

Search our weather history database for the weather conditions in past years. The results will help you decide how hot, cold, wet, or windy it might be!

Date:

Astronomy

Jun. 10, 2014 Rise Set
Actual Time 5:22 AM CDT 8:25 PM CDT
Civil Twilight 4:48 AM CDT 8:59 PM CDT
Nautical Twilight 4:06 AM CDT 9:41 PM CDT
Astronomical Twilight 3:16 AM CDT 10:31 PM CDT
Moon 5:50 PM CDT (6/10) 3:29 AM CDT (6/10)
Length of Visible Light 16h 10m
Length of Day
15h 03m
Waxing Gibbous, 92% of the Moon is Illuminated
Jun 10
Waxing Gibbous
Jun 12
Full
Jun 19
Last Quarter
Jun 27
New
Jul 5
First Quarter

Hourly Weather History & Observations

Time (CDT) Temp. Dew Point Humidity Pressure Visibility Wind Dir Wind Speed Gust Speed Precip Events Conditions
12:15 AM 66.2 °F 60.8 °F 83% 29.90 in 10.0 mi NE 11.5 mph - N/A   Clear
12:35 AM 66.2 °F 60.8 °F 83% 29.89 in 10.0 mi ENE 9.2 mph - N/A   Clear
12:55 AM 64.4 °F 60.8 °F 88% 29.89 in 10.0 mi NE 12.7 mph - N/A   Clear
1:15 AM 64.4 °F 60.8 °F 88% 29.89 in 10.0 mi ENE 11.5 mph - N/A   Clear
1:35 AM 64.4 °F 60.8 °F 88% 29.88 in 10.0 mi NE 10.4 mph - N/A   Clear
1:55 AM 64.4 °F 59.0 °F 83% 29.88 in 10.0 mi NE 9.2 mph - N/A   Clear
2:15 AM 64.4 °F 59.0 °F 83% 29.87 in 7.0 mi NE 11.5 mph - N/A   Scattered Clouds
2:35 AM 64.4 °F 59.0 °F 83% 29.87 in 10.0 mi ENE 10.4 mph - N/A   Scattered Clouds
2:55 AM 64.4 °F 59.0 °F 83% 29.87 in 10.0 mi NE 9.2 mph - N/A   Overcast
3:15 AM 64.4 °F 57.2 °F 77% 29.87 in 10.0 mi NE 10.4 mph - N/A   Overcast
3:35 AM 62.6 °F 57.2 °F 82% 29.86 in 10.0 mi NE 10.4 mph - N/A Rain Light Rain
3:55 AM 62.6 °F 57.2 °F 82% 29.86 in 10.0 mi NE 9.2 mph - N/A Rain Light Rain
4:15 AM 62.6 °F 57.2 °F 82% 29.86 in 10.0 mi NE 10.4 mph - N/A Rain Light Rain
4:35 AM 62.6 °F 57.2 °F 82% 29.85 in 10.0 mi NE 10.4 mph - N/A Rain Light Rain
4:55 AM 62.6 °F 59.0 °F 88% 29.85 in 10.0 mi NE 8.1 mph - N/A Rain Light Rain
5:15 AM 62.6 °F 59.0 °F 88% 29.85 in 10.0 mi NE 6.9 mph - N/A Rain Light Rain
5:35 AM 62.6 °F 59.0 °F 88% 29.86 in 10.0 mi ENE 6.9 mph - N/A Rain Light Rain
5:55 AM 62.6 °F 59.0 °F 88% 29.86 in 7.0 mi East 4.6 mph - N/A Rain Light Rain
6:15 AM 62.6 °F 60.8 °F 94% 29.86 in 7.0 mi Calm Calm - 0.01 in Rain Rain
6:35 AM 62.6 °F 60.8 °F 94% 29.86 in 7.0 mi East 4.6 mph - 0.01 in   Light Drizzle
6:55 AM 64.4 °F 60.8 °F 88% 29.85 in 7.0 mi East 9.2 mph - 0.01 in   Clear
7:15 AM 64.4 °F 62.6 °F 94% 29.86 in 5.0 mi East 11.5 mph - N/A Rain Light Rain
7:35 AM 64.4 °F 62.6 °F 94% 29.86 in 7.0 mi East 9.2 mph - N/A   Scattered Clouds
7:55 AM 64.4 °F 62.6 °F 94% 29.87 in 7.0 mi East 11.5 mph - N/A Rain Light Rain
8:15 AM 66.2 °F 62.6 °F 88% 29.86 in 7.0 mi East 12.7 mph - N/A   Scattered Clouds
8:35 AM 66.2 °F 62.6 °F 88% 29.87 in 7.0 mi East 8.1 mph - N/A   Scattered Clouds
8:55 AM 66.2 °F 64.4 °F 94% 29.87 in 7.0 mi East 8.1 mph - N/A Rain Light Rain
9:15 AM 66.2 °F 64.4 °F 94% 29.87 in 7.0 mi East 10.4 mph - 0.01 in Rain Light Rain
9:35 AM 68.0 °F 64.4 °F 88% 29.86 in 5.0 mi East 11.5 mph - 0.02 in Rain Rain
9:55 AM 68.0 °F 64.4 °F 88% 29.86 in 3.0 mi East 12.7 mph - 0.02 in Rain Light Rain
10:15 AM 66.2 °F 64.4 °F 94% 29.87 in 4.0 mi East 13.8 mph 19.6 mph N/A   Scattered Clouds
10:35 AM 68.0 °F 64.4 °F 88% 29.87 in 5.0 mi East 15.0 mph - N/A   Scattered Clouds
10:55 AM 68.0 °F 64.4 °F 88% 29.86 in 5.0 mi East 13.8 mph 18.4 mph N/A   Mostly Cloudy
11:15 AM 66.2 °F 64.4 °F 94% 29.86 in 3.0 mi East 16.1 mph - N/A   Overcast
11:35 AM 66.2 °F 64.4 °F 94% 29.85 in 3.0 mi East 17.3 mph 23.0 mph N/A Rain Light Rain
11:55 AM 66.2 °F 64.4 °F 94% 29.85 in 2.5 mi East 13.8 mph - N/A Rain Light Rain
12:15 PM 66.2 °F 64.4 °F 94% 29.85 in 2.0 mi East 16.1 mph - 0.02 in Rain Light Rain
12:35 PM 66.2 °F 64.4 °F 94% 29.84 in 2.0 mi East 15.0 mph - 0.03 in Rain Light Rain
1:15 PM 66.2 °F 64.4 °F 94% 29.83 in 4.0 mi East 15.0 mph 21.9 mph N/A   Light Drizzle
1:35 PM 66.2 °F 64.4 °F 94% 29.83 in 2.0 mi East 15.0 mph 18.4 mph N/A Rain Rain
1:55 PM 66.2 °F 64.4 °F 94% 29.82 in 2.5 mi East 12.7 mph - 0.01 in   Overcast
2:35 PM 66.2 °F 64.4 °F 94% 29.82 in 4.0 mi East 16.1 mph 19.6 mph N/A   Overcast
2:55 PM 66.2 °F 64.4 °F 94% 29.81 in 2.0 mi ENE 13.8 mph - N/A   Overcast
3:15 PM 66.2 °F 64.4 °F 94% 29.81 in 2.5 mi ENE 15.0 mph - N/A   Overcast
3:35 PM 64.4 °F 64.4 °F 100% 29.81 in 3.0 mi ENE 16.1 mph - N/A   Overcast
4:15 PM 64.4 °F 64.4 °F 100% 29.80 in 7.0 mi ENE 16.1 mph 19.6 mph N/A   Mostly Cloudy
4:35 PM 64.4 °F 64.4 °F 100% 29.79 in 5.0 mi ENE 15.0 mph - N/A   Light Drizzle
4:55 PM 66.2 °F 64.4 °F 94% 29.78 in 5.0 mi ENE 13.8 mph 20.7 mph N/A   Light Drizzle
5:15 PM 66.2 °F 64.4 °F 94% 29.76 in 4.0 mi ENE 13.8 mph - N/A Rain Light Rain
5:35 PM 66.2 °F 64.4 °F 94% 29.77 in 3.0 mi ENE 11.5 mph - N/A Rain Light Rain
6:15 PM 66.2 °F 64.4 °F 94% 29.78 in 3.0 mi NE 9.2 mph - 0.01 in Rain Light Rain
6:55 PM 66.2 °F 64.4 °F 94% 29.77 in 2.5 mi NE 11.5 mph - 0.03 in Rain Light Rain
7:15 PM 64.4 °F 64.4 °F 100% 29.76 in 2.5 mi NE 13.8 mph - 0.01 in   Drizzle
7:35 PM 64.4 °F 64.4 °F 100% 29.76 in 2.0 mi NE 10.4 mph - 0.01 in   Light Drizzle
7:55 PM 64.4 °F 64.4 °F 100% 29.75 in 2.0 mi NE 13.8 mph - 0.01 in   Overcast
8:15 PM 64.4 °F 62.6 °F 94% 29.75 in 1.5 mi NNE 10.4 mph - N/A   Overcast
8:55 PM 64.4 °F 62.6 °F 94% 29.74 in 2.0 mi NNE 12.7 mph - 0.04 in Rain Rain
9:15 PM 64.4 °F 62.6 °F 94% 29.74 in 2.5 mi NNE 9.2 mph - 0.04 in Rain Rain
10:15 PM 64.4 °F 62.6 °F 94% 29.73 in 3.0 mi NNE 8.1 mph - N/A   Overcast
10:35 PM 64.4 °F 62.6 °F 94% 29.72 in 2.5 mi NNE 6.9 mph - 0.05 in Rain Heavy Rain
10:55 PM 64.4 °F 62.6 °F 94% 29.72 in 3.0 mi NNE 8.1 mph - 0.07 in Rain Light Rain
11:15 PM 64.4 °F 62.6 °F 94% 29.71 in 3.0 mi NNE 6.9 mph - N/A   Overcast
11:35 PM 64.4 °F 62.6 °F 94% 29.71 in 4.0 mi NNE 8.1 mph - N/A   Overcast
11:55 PM 64.4 °F 62.6 °F 94% 29.70 in 4.0 mi NNE 8.1 mph - N/A   Overcast